Location: *
(51.0333°S, 178.4667°E)
Time: 14:35:07
(UTC+00:00)

CZ-4 R/B - Pass Details

Date: 26 February 2020
Orbit: 531 x 599 km, 97.8° (Epoch: 31 March)

Event Time Altitude Azimuth Distance (km) Brightness Sun altitude
Rises 07:36:31 0° 167° (SSE) 2,833 5.1 -4.9°
Reaches altitude 10° 07:38:41 10° 167° (SSE) 1,936 4.2 -5.2°
Maximum altitude 07:42:54 85° 254° (WSW) 608 1.6 -5.9°
Drops below altitude 10° 07:47:08 10° 342° (NNW) 1,942 4.1 -6.5°
Sets 07:49:18 0° 343° (NNW) 2,843 4.9 -6.8°
